DW8816 Weather Reports


time (UTC)temp
F
wind
direction
speed
knots
gust
knots
rain 1hr
in
rain 24hr
in
rain mn
in
humidity
%
barometer
mb
20260506073003 47 9 4.3 9.6 0.00 0.00 0.00 81 1012.3
20260506072003 47 355 5.2 11.3 0.00 0.00 0.00 82 1012.2
20260506071002 46 355 4.3 11.3 0.00 0.00 0.00 82 1012.3
20260506062003 46 7 4.3 13.0 0.00 0.00 0.00 84 1012.0
20260506061003 45 1 4.3 11.3 0.00 0.00 0.00 85 1011.9
20260506051003 45 7 2.6 12.2 0.00 0.00 0.00 84 1012.0
20260506045003 45 13 3.5 10.4 0.00 0.00 0.00 84 1012.0
20260506044003 46 359 3.5 10.4 0.00 0.00 0.00 84 1011.9
20260506043003 46 354 3.5 7.8 0.00 0.00 0.00 84 1011.8
20260506042003 46 2 5.2 11.3 0.00 0.00 0.00 84 1011.9
20260506041003 46 356 3.5 12.2 0.00 0.00 0.00 84 1012.0
20260506040004 46 358 2.6 12.2 0.00 0.00 0.00 84 1011.9
20260506035003 46 16 2.6 7.8 0.00 0.00 0.00 84 1011.9
20260506034003 46 359 3.5 10.4 0.00 0.00 0.00 84 1011.9
20260506033004 46 1 3.5 11.3 0.00 0.00 0.00 84 1011.9
20260506031003 46 6 3.5 10.4 0.00 0.00 0.00 84 1011.9
20260506030003 47 7 2.6 7.8 0.00 0.00 0.00 84 1011.9
20260506025003 47 2 2.6 8.7 0.00 0.00 0.00 84 1011.9
20260506024003 47 26 2.6 8.7 0.00 0.00 0.00 84 1011.9
20260506023002 47 33 2.6 8.7 0.00 0.00 0.00 84 1012.0
20260506022002 48 22 1.7 6.1 0.00 0.00 0.00 84 1012.1
20260506021002 48 1 2.6 5.2 0.00 0.00 0.00 85 1012.1
20260506020004 48 14 2.6 9.6 0.00 0.00 0.00 84 1012.2
20260506015002 48 16 2.6 8.7 0.00 0.00 0.00 85 1012.0
20260506014003 48 14 3.5 9.6 0.00 0.00 0.00 84 1012.0
20260506012004 49 25 2.6 8.7 0.00 0.00 0.00 83 1012.1
20260506011003 49 11 2.6 7.0 0.00 0.00 0.00 83 1012.1
20260506005003 49 39 3.5 7.0 0.00 0.00 0.00 85 1012.2
20260506004002 49 30 3.5 8.7 0.00 0.00 0.00 85 1012.2
20260506003003 49 32 2.6 8.7 0.00 0.00 0.00 85 1012.2
20260506002004 49 18 3.5 7.8 0.00 0.00 0.00 85 1012.3
20260506001004 49 28 2.6 9.6 0.00 0.00 0.00 85 1012.4
20260506000003 50 26 3.5 8.7 0.00 0.00 0.00 85 1012.3
20260505235002 50 14 2.6 7.8 0.00 0.00 0.00 84 1012.2
20260505234003 50 20 3.5 9.6 0.00 0.00 0.00 84 1012.2
20260505233003 50 28 3.5 7.0 0.00 0.00 0.00 83 1012.2
20260505231003 50 35 1.7 8.7 0.00 0.00 0.00 82 1012.3
20260505225003 51 46 3.5 11.3 0.00 0.00 0.00 80 1012.4
20260505224002 51 29 3.5 11.3 0.00 0.00 0.00 80 1012.2
20260505223003 51 36 2.6 8.7 0.00 0.00 0.00 80 1012.2
20260505222003 51 43 3.5 9.6 0.00 0.00 0.00 81 1012.2
20260505221004 52 42 3.5 11.3 0.00 0.00 0.00 81 1012.4
20260505220003 52 31 3.5 7.8 0.00 0.00 0.00 80 1012.2
20260505215002 52 19 3.5 9.6 0.00 0.00 0.00 79 1012.2
20260505214003 52 40 3.5 9.6 0.00 0.00 0.00 78 1012.1
20260505213002 53 28 2.6 8.7 0.00 0.00 0.00 78 1012.0
20260505211004 54 54 5.2 12.2 0.00 0.00 0.00 75 1011.9
20260505210003 54 32 2.6 13.9 0.00 0.00 0.00 74 1011.8
20260505205002 54 40 3.5 9.6 0.00 0.00 0.00 75 1011.8
20260505204003 54 37 3.5 9.6 0.00 0.00 0.00 75 1011.7
20260505202003 54 23 4.3 10.4 0.00 0.00 0.00 74 1011.6
20260505201003 55 19 4.3 10.4 0.00 0.00 0.00 74 1011.5
20260505200003 55 24 3.5 10.4 0.00 0.00 0.00 74 1011.4
20260505195003 55 29 4.3 10.4 0.00 0.00 0.00 74 1011.2
20260505193003 55 25 3.5 10.4 0.00 0.00 0.00 74 1011.1
20260505192003 56 21 3.5 9.6 0.00 0.00 0.00 74 1010.9
20260505190003 57 13 2.6 12.2 0.00 0.00 0.00 75 1010.7
20260505185003 57 23 2.6 7.8 0.00 0.00 0.00 75 1010.7
20260505183003 57 22 4.3 9.6 0.00 0.00 0.00 73 1010.6
20260505182003 58 6 2.6 9.6 0.00 0.00 0.00 72 1010.5
20260505181003 58 1 2.6 7.8 0.00 0.00 0.00 70 1010.5
20260505180004 58 9 3.5 7.0 0.00 0.00 0.00 69 1010.4
20260505174003 58 20 3.5 7.0 0.00 0.00 0.00 68 1010.5
20260505173003 59 359 4.3 8.7 0.00 0.00 0.00 68 1010.5
20260505172003 59 353 3.5 10.4 0.00 0.00 0.00 68 1010.5
20260505170003 59 351 3.5 8.7 0.00 0.00 0.00 67 1010.5
20260505165004 59 7 3.5 8.7 0.00 0.00 0.00 67 1010.5
20260505164003 60 5 3.5 9.6 0.00 0.00 0.00 66 1010.5
20260505163003 60 343 3.5 8.7 0.00 0.00 0.00 65 1010.5
20260505162003 60 349 3.5 10.4 0.00 0.00 0.00 66 1010.5
20260505161003 60 343 3.5 8.7 0.00 0.00 0.00 66 1010.5
20260505153003 60 349 2.6 7.0 0.00 0.00 0.00 63 1010.6
20260505152004 61 350 3.5 7.0 0.00 0.00 0.00 63 1010.6
20260505151003 61 340 2.6 8.7 0.00 0.00 0.00 63 1010.7
20260505125003 59 1 2.6 7.8 0.00 0.00 0.00 67 1011.3
20260505123003 60 6 2.6 5.2 0.00 0.00 0.00 66 1011.3
20260505122004 60 71 2.6 9.6 0.00 0.00 0.00 65 1011.3
20260505121003 60 61 1.7 7.0 0.00 0.00 0.00 65 1011.2
20260505120004 60 41 3.5 7.0 0.00 0.00 0.00 68 1011.3
20260505115003 59 8 2.6 7.8 0.00 0.00 0.00 67 1011.3
20260505114005 59 52 3.5 8.7 0.00 0.00 0.00 69 1011.4
20260505113004 58 13 2.6 7.0 0.00 0.00 0.00 70 1011.5
20260505112004 58 41 2.6 7.0 0.00 0.00 0.00 70 1011.5
20260505111005 58 54 2.6 7.0 0.00 0.00 0.00 70 1011.7
20260505102003 57 38 2.6 7.8 0.00 0.00 0.00 73 1012.0
20260505101003 57 28 3.5 7.0 0.00 0.00 0.00 75 1012.0
20260505100004 57 13 2.6 8.7 0.00 0.00 0.00 75 1012.0
20260505095003 57 30 2.6 10.4 0.00 0.00 0.00 78 1012.0
20260505094003 56 11 4.3 9.6 0.00 0.00 0.00 80 1012.2
20260505093003 55 36 2.6 10.4 0.00 0.00 0.00 79 1012.2
20260505092003 54 13 3.5 8.7 0.00 0.00 0.00 82 1012.2
20260505090004 53 355 2.6 7.0 0.00 0.00 0.00 87 1012.4
20260505085003 52 4 2.6 7.8 0.00 0.00 0.00 89 1012.5
20260505083003 51 346 1.7 7.0 0.00 0.00 0.00 90 1012.5
20260505082004 51 14 1.7 3.5 0.00 0.00 0.00 91 1012.4
20260505081004 51 6 2.6 5.2 0.00 0.00 0.00 91 1012.4
20260505080004 51 355 0.9 5.2 0.00 0.00 0.00 92 1012.3
20260505074003 51 342 0.9 3.5 0.00 0.00 0.00 93 1012.5